Time,TemperatureF,DewpointF,PressureIn,WindDirection,WindDirectionDegrees,WindSpeedMPH,WindSpeedGustMPH,Humidity,HourlyPrecipIn,Conditions,Clouds,dailyrainin,SoftwareType,DateUTC
2013-05-29 00:01:00,62.9,55.3,29.61,SSE,150,1.0,9.0,76,0.00,,,0.00,WUHU216DAVISVP2,2013-05-29 05:01:00,
2013-05-29 00:06:00,62.8,55.2,29.61,South,184,3.0,11.0,76,0.00,,,0.00,WUHU216DAVISVP2,2013-05-29 05:06:00,
2013-05-29 00:11:00,62.8,55.2,29.61,SSE,167,0.0,11.0,76,0.00,,,0.00,WUHU216DAVISVP2,2013-05-29 05:11:00,
2013-05-29 00:16:00,62.7,55.1,29.61,SE,145,0.0,11.0,76,0.00,,,0.00,WUHU216DAVISVP2,2013-05-29 05:16:00,
2013-05-29 00:21:00,62.6,55.0,29.61,South,191,0.0,7.0,76,0.00,,,0.00,WUHU216DAVISVP2,2013-05-29 05:21:00,
2013-05-29 00:26:00,62.5,54.9,29.62,South,191,5.0,12.0,76,0.00,,,0.00,WUHU216DAVISVP2,2013-05-29 05:26:00,
2013-05-29 00:31:00,62.4,54.8,29.62,SE,141,0.0,12.0,76,0.00,,,0.00,WUHU216DAVISVP2,2013-05-29 05:31:00,
2013-05-29 00:36:00,62.3,55.1,29.63,South,186,0.0,11.0,77,0.00,,,0.00,WUHU216DAVISVP2,2013-05-29 05:36:00,
2013-05-29 00:41:00,62.2,55.0,29.63,SSE,168,0.0,14.0,77,0.00,,,0.00,WUHU216DAVISVP2,2013-05-29 05:41:00,
2013-05-29 00:46:00,62.1,54.9,29.63,SSW,195,4.0,16.0,77,0.00,,,0.00,WUHU216DAVISVP2,2013-05-29 05:46:00,
2013-05-29 00:51:00,62.0,54.8,29.63,South,190,12.0,16.0,77,0.00,,,0.00,WUHU216DAVISVP2,2013-05-29 05:51:00,
2013-05-29 00:56:00,61.8,54.6,29.63,South,170,9.0,15.0,77,0.00,,,0.00,WUHU216DAVISVP2,2013-05-29 05:56:00,
2013-05-29 01:01:00,61.6,54.8,29.63,SSE,150,0.0,15.0,78,0.00,,,0.00,WUHU216DAVISVP2,2013-05-29 06:01:00,
2013-05-29 01:06:00,61.4,54.6,29.63,SSE,168,0.0,13.0,78,0.00,,,0.00,WUHU216DAVISVP2,2013-05-29 06:06:00,
2013-05-29 01:11:00,61.3,54.5,29.63,South,183,0.0,14.0,78,0.00,,,0.00,WUHU216DAVISVP2,2013-05-29 06:11:00,
2013-05-29 01:16:00,61.1,54.6,29.63,SSW,192,3.0,14.0,79,0.00,,,0.00,WUHU216DAVISVP2,2013-05-29 06:16:00,
2013-05-29 01:21:00,60.9,54.4,29.64,SSW,200,5.0,14.0,79,0.00,,,0.00,WUHU216DAVISVP2,2013-05-29 06:21:00,
2013-05-29 01:26:00,60.8,54.3,29.63,South,186,4.0,12.0,79,0.00,,,0.00,WUHU216DAVISVP2,2013-05-29 06:26:00,
2013-05-29 01:31:00,60.8,54.3,29.63,SSW,207,0.0,12.0,79,0.00,,,0.00,WUHU216DAVISVP2,2013-05-29 06:31:00,
2013-05-29 01:36:00,60.7,54.6,29.64,South,186,0.0,10.0,80,0.00,,,0.00,WUHU216DAVISVP2,2013-05-29 06:36:00,
2013-05-29 01:41:00,60.6,54.5,29.64,South,183,5.0,7.0,80,0.00,,,0.00,WUHU216DAVISVP2,2013-05-29 06:41:00,
2013-05-29 01:46:00,60.5,54.4,29.64,SSW,203,5.0,10.0,80,0.00,,,0.00,WUHU216DAVISVP2,2013-05-29 06:46:00,
2013-05-29 01:51:00,60.5,54.4,29.64,SSW,198,1.0,11.0,80,0.00,,,0.00,WUHU216DAVISVP2,2013-05-29 06:51:00,
2013-05-29 01:56:00,60.4,54.3,29.65,South,188,0.0,11.0,80,0.00,,,0.00,WUHU216DAVISVP2,2013-05-29 06:56:00,
2013-05-29 02:01:00,60.3,54.2,29.65,SSW,196,4.0,15.0,80,0.00,,,0.00,WUHU216DAVISVP2,2013-05-29 07:01:00,
2013-05-29 02:06:00,60.2,54.4,29.65,South,183,0.0,15.0,81,0.00,,,0.00,WUHU216DAVISVP2,2013-05-29 07:06:00,
2013-05-29 02:11:00,60.1,54.3,29.65,SSW,192,3.0,11.0,81,0.00,,,0.00,WUHU216DAVISVP2,2013-05-29 07:11:00,
2013-05-29 02:16:00,60.0,54.2,29.66,South,169,0.0,11.0,81,0.00,,,0.00,WUHU216DAVISVP2,2013-05-29 07:16:00,
2013-05-29 02:21:00,59.9,54.1,29.66,SSE,153,0.0,9.0,81,0.00,,,0.00,WUHU216DAVISVP2,2013-05-29 07:21:00,
2013-05-29 02:26:00,59.7,53.9,29.65,South,180,0.0,9.0,81,0.00,,,0.00,WUHU216DAVISVP2,2013-05-29 07:26:00,
2013-05-29 02:31:00,59.6,54.1,29.66,SSE,167,0.0,9.0,82,0.00,,,0.00,WUHU216DAVISVP2,2013-05-29 07:31:00,
2013-05-29 02:36:00,59.4,53.9,29.65,SE,131,0.0,10.0,82,0.00,,,0.00,WUHU216DAVISVP2,2013-05-29 07:36:00,
2013-05-29 02:41:00,59.3,53.8,29.66,South,191,0.0,10.0,82,0.00,,,0.00,WUHU216DAVISVP2,2013-05-29 07:41:00,
2013-05-29 02:46:00,59.0,53.5,29.65,South,190,0.0,5.0,82,0.00,,,0.00,WUHU216DAVISVP2,2013-05-29 07:46:00,
2013-05-29 02:51:00,59.0,53.9,29.65,SW,217,0.0,2.0,83,0.00,,,0.00,WUHU216DAVISVP2,2013-05-29 07:51:00,
2013-05-29 02:56:00,59.0,53.9,29.65,SW,215,0.0,2.0,83,0.00,,,0.00,WUHU216DAVISVP2,2013-05-29 07:56:00,
2013-05-29 03:01:00,59.0,53.9,29.65,SSW,206,0.0,0.0,83,0.00,,,0.00,WUHU216DAVISVP2,2013-05-29 08:01:00,
2013-05-29 03:06:00,58.9,53.8,29.65,SSW,196,0.0,3.0,83,0.00,,,0.00,WUHU216DAVISVP2,2013-05-29 08:06:00,
2013-05-29 03:11:00,58.8,54.0,29.65,South,173,0.0,5.0,84,0.00,,,0.00,WUHU216DAVISVP2,2013-05-29 08:11:00,
2013-05-29 03:16:00,58.8,54.0,29.65,South,176,0.0,5.0,84,0.00,,,0.00,WUHU216DAVISVP2,2013-05-29 08:16:00,
2013-05-29 03:21:00,58.9,54.1,29.65,South,181,0.0,5.0,84,0.00,,,0.00,WUHU216DAVISVP2,2013-05-29 08:21:00,
2013-05-29 03:26:00,58.9,54.1,29.65,SSE,162,0.0,7.0,84,0.00,,,0.00,WUHU216DAVISVP2,2013-05-29 08:26:00,
2013-05-29 03:31:00,58.9,54.1,29.65,South,172,0.0,7.0,84,0.00,,,0.00,WUHU216DAVISVP2,2013-05-29 08:31:00,
2013-05-29 03:36:00,58.7,53.9,29.64,South,171,0.0,4.0,84,0.00,,,0.00,WUHU216DAVISVP2,2013-05-29 08:36:00,
2013-05-29 03:41:00,58.7,53.9,29.64,South,171,0.0,0.0,84,0.00,,,0.00,WUHU216DAVISVP2,2013-05-29 08:41:00,
2013-05-29 03:46:00,58.6,53.8,29.64,South,175,0.0,5.0,84,0.00,,,0.00,WUHU216DAVISVP2,2013-05-29 08:46:00,
2013-05-29 03:51:00,58.6,54.1,29.64,SSE,168,0.0,5.0,85,0.00,,,0.00,WUHU216DAVISVP2,2013-05-29 08:51:00,
2013-05-29 03:56:00,58.6,54.1,29.64,South,169,0.0,5.0,85,0.00,,,0.00,WUHU216DAVISVP2,2013-05-29 08:56:00,
2013-05-29 04:01:00,58.4,53.9,29.64,SSE,168,0.0,0.0,85,0.00,,,0.00,WUHU216DAVISVP2,2013-05-29 09:01:00,
2013-05-29 04:06:00,58.3,53.8,29.64,South,169,0.0,0.0,85,0.00,,,0.00,WUHU216DAVISVP2,2013-05-29 09:06:00,
2013-05-29 04:11:00,58.1,53.6,29.64,South,169,0.0,0.0,85,0.00,,,0.00,WUHU216DAVISVP2,2013-05-29 09:11:00,
2013-05-29 04:16:00,58.0,53.5,29.64,South,169,0.0,0.0,85,0.00,,,0.00,WUHU216DAVISVP2,2013-05-29 09:16:00,
2013-05-29 04:21:00,57.9,53.4,29.64,SSE,168,0.0,0.0,85,0.00,,,0.00,WUHU216DAVISVP2,2013-05-29 09:21:00,
2013-05-29 04:26:00,57.8,53.3,29.64,South,169,0.0,0.0,85,0.00,,,0.00,WUHU216DAVISVP2,2013-05-29 09:26:00,
2013-05-29 04:31:00,57.7,53.2,29.64,South,169,0.0,0.0,85,0.00,,,0.00,WUHU216DAVISVP2,2013-05-29 09:31:00,
2013-05-29 04:36:00,57.6,53.1,29.64,South,169,0.0,0.0,85,0.00,,,0.00,WUHU216DAVISVP2,2013-05-29 09:36:00,
2013-05-29 04:41:00,57.4,53.2,29.64,South,169,0.0,0.0,86,0.00,,,0.00,WUHU216DAVISVP2,2013-05-29 09:41:00,
2013-05-29 04:46:00,57.3,53.1,29.64,South,169,0.0,0.0,86,0.00,,,0.00,WUHU216DAVISVP2,2013-05-29 09:46:00,
2013-05-29 04:51:00,57.1,52.9,29.64,South,169,0.0,0.0,86,0.00,,,0.00,WUHU216DAVISVP2,2013-05-29 09:51:00,
2013-05-29 04:56:00,56.8,52.7,29.64,South,169,0.0,0.0,86,0.00,,,0.00,WUHU216DAVISVP2,2013-05-29 09:56:00,
2013-05-29 05:01:00,56.7,52.6,29.64,South,169,0.0,0.0,86,0.00,,,0.00,WUHU216DAVISVP2,2013-05-29 10:01:00,
2013-05-29 05:06:00,56.5,52.4,29.64,South,169,0.0,0.0,86,0.00,,,0.00,WUHU216DAVISVP2,2013-05-29 10:06:00,
2013-05-29 05:11:00,56.4,52.3,29.65,South,169,0.0,0.0,86,0.00,,,0.00,WUHU216DAVISVP2,2013-05-29 10:11:00,
2013-05-29 05:16:00,56.3,52.2,29.64,South,171,0.0,6.0,86,0.00,,,0.00,WUHU216DAVISVP2,2013-05-29 10:16:00,
2013-05-29 05:21:00,56.2,52.4,29.64,South,171,0.0,6.0,87,0.00,,,0.00,WUHU216DAVISVP2,2013-05-29 10:21:00,
2013-05-29 05:26:00,56.1,52.3,29.64,South,171,0.0,3.0,87,0.00,,,0.00,WUHU216DAVISVP2,2013-05-29 10:26:00,
2013-05-29 05:31:00,56.0,52.2,29.64,South,171,0.0,0.0,87,0.00,,,0.00,WUHU216DAVISVP2,2013-05-29 10:31:00,
2013-05-29 05:36:00,55.9,51.8,29.64,South,171,0.0,0.0,86,0.00,,,0.00,WUHU216DAVISVP2,2013-05-29 10:36:00,
2013-05-29 05:41:00,55.8,52.0,29.64,South,171,0.0,0.0,87,0.00,,,0.00,WUHU216DAVISVP2,2013-05-29 10:41:00,
2013-05-29 05:46:00,55.8,52.0,29.65,South,171,0.0,0.0,87,0.00,,,0.00,WUHU216DAVISVP2,2013-05-29 10:46:00,
2013-05-29 05:51:00,55.8,52.0,29.65,South,177,0.0,4.0,87,0.00,,,0.00,WUHU216DAVISVP2,2013-05-29 10:51:00,
2013-05-29 05:56:00,55.8,52.0,29.65,South,176,0.0,4.0,87,0.00,,,0.00,WUHU216DAVISVP2,2013-05-29 10:56:00,
2013-05-29 06:01:00,55.8,52.0,29.66,South,187,0.0,3.0,87,0.00,,,0.00,WUHU216DAVISVP2,2013-05-29 11:01:00,
2013-05-29 06:06:00,56.0,52.2,29.66,South,177,0.0,6.0,87,0.00,,,0.00,WUHU216DAVISVP2,2013-05-29 11:06:00,
2013-05-29 06:11:00,56.3,52.5,29.66,South,172,0.0,6.0,87,0.00,,,0.00,WUHU216DAVISVP2,2013-05-29 11:11:00,
2013-05-29 06:16:00,56.5,52.7,29.65,SSW,202,0.0,6.0,87,0.00,,,0.00,WUHU216DAVISVP2,2013-05-29 11:16:00,
2013-05-29 06:21:00,56.6,52.8,29.65,SSW,199,0.0,6.0,87,0.00,,,0.00,WUHU216DAVISVP2,2013-05-29 11:21:00,
2013-05-29 06:26:00,56.7,52.9,29.65,SSW,194,0.0,5.0,87,0.00,,,0.00,WUHU216DAVISVP2,2013-05-29 11:26:00,
2013-05-29 06:31:00,56.9,53.1,29.64,SSW,194,0.0,1.0,87,0.00,,,0.00,WUHU216DAVISVP2,2013-05-29 11:31:00,
2013-05-29 06:36:00,57.0,53.2,29.64,SSW,194,0.0,0.0,87,0.00,,,0.00,WUHU216DAVISVP2,2013-05-29 11:36:00,
2013-05-29 06:41:00,57.2,53.0,29.64,SSW,194,0.0,0.0,86,0.00,,,0.00,WUHU216DAVISVP2,2013-05-29 11:41:00,
2013-05-29 06:46:00,57.3,53.1,29.64,SSW,194,0.0,0.0,86,0.00,,,0.00,WUHU216DAVISVP2,2013-05-29 11:46:00,
2013-05-29 06:51:00,57.5,53.3,29.64,SSW,194,0.0,0.0,86,0.00,,,0.00,WUHU216DAVISVP2,2013-05-29 11:51:00,
2013-05-29 06:56:00,57.6,53.4,29.64,SSW,194,0.0,4.0,86,0.00,,,0.00,WUHU216DAVISVP2,2013-05-29 11:56:00,
2013-05-29 07:01:00,57.6,53.4,29.63,SSW,194,3.0,4.0,86,0.00,,,0.00,WUHU216DAVISVP2,2013-05-29 12:01:00,
2013-05-29 07:06:00,57.7,53.2,29.63,SSW,194,0.0,4.0,85,0.00,,,0.00,WUHU216DAVISVP2,2013-05-29 12:06:00,
2013-05-29 07:11:00,57.8,53.3,29.63,SSW,194,0.0,1.0,85,0.00,,,0.00,WUHU216DAVISVP2,2013-05-29 12:11:00,
2013-05-29 07:16:00,58.0,53.5,29.62,SSW,194,0.0,0.0,85,0.00,,,0.00,WUHU216DAVISVP2,2013-05-29 12:16:00,
2013-05-29 07:21:00,58.2,53.7,29.62,SSW,194,0.0,0.0,85,0.00,,,0.00,WUHU216DAVISVP2,2013-05-29 12:21:00,
2013-05-29 07:26:00,58.3,53.8,29.62,SSW,194,0.0,1.0,85,0.00,,,0.00,WUHU216DAVISVP2,2013-05-29 12:26:00,
2013-05-29 07:31:00,58.5,54.0,29.62,SSW,194,0.0,1.0,85,0.00,,,0.00,WUHU216DAVISVP2,2013-05-29 12:31:00,
2013-05-29 07:36:00,58.7,54.2,29.62,SSW,194,0.0,0.0,85,0.00,,,0.00,WUHU216DAVISVP2,2013-05-29 12:36:00,
2013-05-29 07:41:00,59.0,54.5,29.62,SSW,194,0.0,1.0,85,0.00,,,0.00,WUHU216DAVISVP2,2013-05-29 12:41:00,
2013-05-29 07:46:00,59.0,54.2,29.63,South,191,0.0,4.0,84,0.00,,,0.00,WUHU216DAVISVP2,2013-05-29 12:46:00,
2013-05-29 07:51:00,59.0,54.2,29.63,South,191,0.0,4.0,84,0.00,,,0.00,WUHU216DAVISVP2,2013-05-29 12:51:00,
2013-05-29 07:56:00,59.3,54.5,29.64,South,191,0.0,4.0,84,0.00,,,0.00,WUHU216DAVISVP2,2013-05-29 12:56:00,
2013-05-29 08:01:00,59.7,54.6,29.64,South,183,0.0,9.0,83,0.00,,,0.00,WUHU216DAVISVP2,2013-05-29 13:01:00,
2013-05-29 08:06:00,59.9,54.4,29.65,SSW,193,0.0,9.0,82,0.00,,,0.00,WUHU216DAVISVP2,2013-05-29 13:06:00,
2013-05-29 08:11:00,60.0,54.5,29.66,South,180,0.0,11.0,82,0.00,,,0.00,WUHU216DAVISVP2,2013-05-29 13:11:00,
2013-05-29 08:16:00,60.2,54.7,29.66,South,184,0.0,12.0,82,0.00,,,0.00,WUHU216DAVISVP2,2013-05-29 13:16:00,
2013-05-29 08:21:00,60.5,55.0,29.66,SSE,160,0.0,12.0,82,0.00,,,0.00,WUHU216DAVISVP2,2013-05-29 13:21:00,
2013-05-29 08:26:00,60.8,55.0,29.66,SSW,195,0.0,7.0,81,0.00,,,0.00,WUHU216DAVISVP2,2013-05-29 13:26:00,
2013-05-29 08:31:00,60.9,54.7,29.66,South,186,0.0,7.0,80,0.00,,,0.00,WUHU216DAVISVP2,2013-05-29 13:31:00,
2013-05-29 08:36:00,60.9,54.7,29.66,SSW,196,0.0,7.0,80,0.00,,,0.00,WUHU216DAVISVP2,2013-05-29 13:36:00,
2013-05-29 08:41:00,61.2,55.0,29.66,SSE,168,0.0,7.0,80,0.00,,,0.00,WUHU216DAVISVP2,2013-05-29 13:41:00,
2013-05-29 08:46:00,61.6,55.4,29.66,South,173,0.0,10.0,80,0.00,,,0.00,WUHU216DAVISVP2,2013-05-29 13:46:00,
2013-05-29 08:51:00,62.2,55.7,29.66,South,190,3.0,10.0,79,0.00,,,0.00,WUHU216DAVISVP2,2013-05-29 13:51:00,
2013-05-29 08:56:00,62.8,55.9,29.66,SSE,165,1.0,10.0,78,0.00,,,0.00,WUHU216DAVISVP2,2013-05-29 13:56:00,
2013-05-29 09:01:00,63.3,56.1,29.66,South,191,1.0,10.0,77,0.00,,,0.00,WUHU216DAVISVP2,2013-05-29 14:01:00,
2013-05-29 09:06:00,63.8,56.2,29.66,South,184,5.0,10.0,76,0.00,,,0.00,WUHU216DAVISVP2,2013-05-29 14:06:00,
2013-05-29 09:11:00,64.2,56.2,29.66,South,188,4.0,16.0,75,0.00,,,0.00,WUHU216DAVISVP2,2013-05-29 14:11:00,
2013-05-29 09:16:00,64.5,56.5,29.67,South,190,0.0,16.0,75,0.00,,,0.00,WUHU216DAVISVP2,2013-05-29 14:16:00,
2013-05-29 09:21:00,64.9,56.9,29.66,SSE,160,0.0,15.0,75,0.00,,,0.00,WUHU216DAVISVP2,2013-05-29 14:21:00,
2013-05-29 09:26:00,65.4,57.0,29.66,SSW,198,0.0,14.0,74,0.00,,,0.00,WUHU216DAVISVP2,2013-05-29 14:26:00,
2013-05-29 09:31:00,65.6,56.8,29.66,South,186,8.0,14.0,73,0.00,,,0.00,WUHU216DAVISVP2,2013-05-29 14:31:00,
2013-05-29 09:36:00,65.9,57.1,29.66,SSW,195,5.0,14.0,73,0.00,,,0.00,WUHU216DAVISVP2,2013-05-29 14:36:00,
2013-05-29 09:41:00,66.1,57.3,29.66,South,171,0.0,13.0,73,0.00,,,0.00,WUHU216DAVISVP2,2013-05-29 14:41:00,
2013-05-29 09:46:00,66.3,57.2,29.66,South,190,0.0,9.0,72,0.00,,,0.00,WUHU216DAVISVP2,2013-05-29 14:46:00,
2013-05-29 09:51:00,66.5,57.7,29.66,SSW,195,3.0,10.0,73,0.00,,,0.00,WUHU216DAVISVP2,2013-05-29 14:51:00,
2013-05-29 09:56:00,66.8,57.6,29.66,SE,145,0.0,10.0,72,0.00,,,0.00,WUHU216DAVISVP2,2013-05-29 14:56:00,
2013-05-29 10:01:00,67.1,57.5,29.65,South,175,0.0,6.0,71,0.00,,,0.00,WUHU216DAVISVP2,2013-05-29 15:01:00,
2013-05-29 10:06:00,67.2,57.6,29.65,South,182,4.0,9.0,71,0.00,,,0.00,WUHU216DAVISVP2,2013-05-29 15:06:00,
2013-05-29 10:11:00,67.4,57.8,29.65,South,184,0.0,9.0,71,0.00,,,0.00,WUHU216DAVISVP2,2013-05-29 15:11:00,
2013-05-29 10:16:00,67.6,58.0,29.65,South,180,0.0,7.0,71,0.00,,,0.00,WUHU216DAVISVP2,2013-05-29 15:16:00,
2013-05-29 10:21:00,67.6,58.0,29.65,South,171,0.0,9.0,71,0.00,,,0.00,WUHU216DAVISVP2,2013-05-29 15:21:00,
2013-05-29 10:26:00,67.6,58.0,29.64,South,171,5.0,9.0,71,0.00,,,0.00,WUHU216DAVISVP2,2013-05-29 15:26:00,
2013-05-29 10:31:00,67.6,58.0,29.64,South,184,0.0,5.0,71,0.00,,,0.00,WUHU216DAVISVP2,2013-05-29 15:31:00,
2013-05-29 10:36:00,67.7,58.1,29.63,South,186,0.0,6.0,71,0.00,,,0.00,WUHU216DAVISVP2,2013-05-29 15:36:00,
2013-05-29 10:41:00,67.9,58.3,29.62,South,185,0.0,6.0,71,0.00,,,0.00,WUHU216DAVISVP2,2013-05-29 15:41:00,
2013-05-29 10:46:00,67.9,58.3,29.62,South,184,0.0,0.0,71,0.00,,,0.00,WUHU216DAVISVP2,2013-05-29 15:46:00,
2013-05-29 10:51:00,67.9,58.3,29.60,South,185,0.0,0.0,71,0.00,,,0.00,WUHU216DAVISVP2,2013-05-29 15:51:00,
2013-05-29 10:56:00,67.9,58.7,29.60,South,190,0.0,0.0,72,0.00,,,0.00,WUHU216DAVISVP2,2013-05-29 15:56:00,
2013-05-29 11:01:00,68.0,58.8,29.60,South,187,0.0,1.0,72,0.00,,,0.00,WUHU216DAVISVP2,2013-05-29 16:01:00,
2013-05-29 11:06:00,68.0,58.4,29.61,South,188,0.0,1.0,71,0.00,,,0.00,WUHU216DAVISVP2,2013-05-29 16:06:00,
2013-05-29 11:11:00,67.9,58.7,29.61,South,189,0.0,2.0,72,0.00,,,0.00,WUHU216DAVISVP2,2013-05-29 16:11:00,
2013-05-29 11:16:00,67.8,58.6,29.62,South,189,0.0,2.0,72,0.00,,,0.00,WUHU216DAVISVP2,2013-05-29 16:16:00,
2013-05-29 11:21:00,67.8,58.6,29.63,South,190,0.0,1.0,72,0.00,,,0.00,WUHU216DAVISVP2,2013-05-29 16:21:00,
2013-05-29 11:26:00,67.9,59.1,29.63,South,189,0.0,1.0,73,0.00,,,0.00,WUHU216DAVISVP2,2013-05-29 16:26:00,
2013-05-29 11:31:00,68.0,58.8,29.62,South,190,0.0,0.0,72,0.00,,,0.00,WUHU216DAVISVP2,2013-05-29 16:31:00,
2013-05-29 11:36:00,68.3,58.7,29.62,South,190,0.0,0.0,71,0.00,,,0.00,WUHU216DAVISVP2,2013-05-29 16:36:00,
2013-05-29 11:41:00,68.5,59.3,29.62,South,190,0.0,0.0,72,0.00,,,0.00,WUHU216DAVISVP2,2013-05-29 16:41:00,
2013-05-29 11:46:00,68.6,58.6,29.63,South,190,0.0,0.0,70,0.00,,,0.00,WUHU216DAVISVP2,2013-05-29 16:46:00,
2013-05-29 11:51:00,68.6,59.0,29.63,South,190,0.0,0.0,71,0.00,,,0.00,WUHU216DAVISVP2,2013-05-29 16:51:00,
2013-05-29 11:56:00,68.6,58.6,29.64,South,190,0.0,0.0,70,0.00,,,0.00,WUHU216DAVISVP2,2013-05-29 16:56:00,
2013-05-29 12:01:00,68.4,58.8,29.64,South,190,0.0,0.0,71,0.00,,,0.00,WUHU216DAVISVP2,2013-05-29 17:01:00,
2013-05-29 12:06:00,68.3,58.7,29.64,South,190,0.0,0.0,71,0.00,,,0.00,WUHU216DAVISVP2,2013-05-29 17:06:00,
2013-05-29 12:11:00,68.4,58.8,29.64,South,190,0.0,0.0,71,0.00,,,0.00,WUHU216DAVISVP2,2013-05-29 17:11:00,
2013-05-29 12:16:00,68.7,59.1,29.64,South,190,0.0,0.0,71,0.00,,,0.00,WUHU216DAVISVP2,2013-05-29 17:16:00,
2013-05-29 12:21:00,68.9,58.9,29.64,South,190,0.0,1.0,70,0.00,,,0.00,WUHU216DAVISVP2,2013-05-29 17:21:00,
2013-05-29 12:26:00,69.1,59.1,29.64,South,190,0.0,1.0,70,0.00,,,0.00,WUHU216DAVISVP2,2013-05-29 17:26:00,
2013-05-29 12:31:00,69.4,59.4,29.64,South,190,0.0,1.0,70,0.00,,,0.00,WUHU216DAVISVP2,2013-05-29 17:31:00,
2013-05-29 12:36:00,69.7,59.3,29.64,South,190,0.0,0.0,69,0.00,,,0.00,WUHU216DAVISVP2,2013-05-29 17:36:00,
2013-05-29 12:41:00,69.8,59.4,29.64,South,190,0.0,0.0,69,0.00,,,0.00,WUHU216DAVISVP2,2013-05-29 17:41:00,
2013-05-29 12:46:00,70.0,59.5,29.64,South,190,0.0,0.0,69,0.00,,,0.00,WUHU216DAVISVP2,2013-05-29 17:46:00,
2013-05-29 12:51:00,70.2,59.7,29.64,South,190,0.0,0.0,69,0.00,,,0.00,WUHU216DAVISVP2,2013-05-29 17:51:00,
2013-05-29 12:56:00,70.7,59.4,29.64,SSW,192,0.0,4.0,67,0.00,,,0.00,WUHU216DAVISVP2,2013-05-29 17:56:00,
2013-05-29 13:01:00,70.9,60.0,29.63,SSW,192,0.0,4.0,68,0.00,,,0.00,WUHU216DAVISVP2,2013-05-29 18:01:00,
2013-05-29 13:06:00,71.3,60.0,29.63,SSW,192,0.0,1.0,67,0.00,,,0.00,WUHU216DAVISVP2,2013-05-29 18:06:00,
2013-05-29 13:11:00,71.6,59.8,29.63,SSW,192,0.0,0.0,66,0.00,,,0.00,WUHU216DAVISVP2,2013-05-29 18:11:00,
2013-05-29 13:16:00,71.7,59.9,29.63,SSW,192,0.0,0.0,66,0.00,,,0.00,WUHU216DAVISVP2,2013-05-29 18:16:00,
2013-05-29 13:21:00,71.7,59.9,29.64,SSW,192,0.0,0.0,66,0.00,,,0.00,WUHU216DAVISVP2,2013-05-29 18:21:00,
2013-05-29 13:26:00,71.6,59.4,29.64,South,188,0.0,5.0,65,0.00,,,0.00,WUHU216DAVISVP2,2013-05-29 18:26:00,
2013-05-29 13:31:00,71.4,59.6,29.64,South,180,0.0,5.0,66,0.00,,,0.00,WUHU216DAVISVP2,2013-05-29 18:31:00,
2013-05-29 13:36:00,71.4,59.6,29.64,South,180,0.0,4.0,66,0.00,,,0.00,WUHU216DAVISVP2,2013-05-29 18:36:00,
2013-05-29 13:41:00,71.3,60.0,29.64,South,175,0.0,1.0,67,0.00,,,0.00,WUHU216DAVISVP2,2013-05-29 18:41:00,
2013-05-29 13:46:00,71.2,59.9,29.65,South,175,0.0,0.0,67,0.00,,,0.00,WUHU216DAVISVP2,2013-05-29 18:46:00,
2013-05-29 13:51:00,71.3,60.0,29.65,South,176,0.0,5.0,67,0.00,,,0.00,WUHU216DAVISVP2,2013-05-29 18:51:00,
2013-05-29 13:56:00,70.9,60.4,29.64,South,175,0.0,5.0,69,0.00,,,0.00,WUHU216DAVISVP2,2013-05-29 18:56:00,
2013-05-29 14:01:00,70.7,61.0,29.65,South,180,0.0,4.0,71,0.00,,,0.00,WUHU216DAVISVP2,2013-05-29 19:01:00,
2013-05-29 14:06:00,70.0,60.7,29.65,SSE,160,0.0,7.0,72,0.00,,,0.00,WUHU216DAVISVP2,2013-05-29 19:06:00,
2013-05-29 14:11:00,69.2,60.3,29.66,South,183,0.0,7.0,73,0.00,,,0.00,WUHU216DAVISVP2,2013-05-29 19:11:00,
2013-05-29 14:16:00,68.7,60.2,29.65,South,188,0.0,6.0,74,0.01,,,0.01,WUHU216DAVISVP2,2013-05-29 19:16:00,
2013-05-29 14:21:00,68.1,60.0,29.65,SSW,194,0.0,5.0,75,0.01,,,0.01,WUHU216DAVISVP2,2013-05-29 19:21:00,
2013-05-29 14:26:00,67.7,60.0,29.65,SSW,194,0.0,5.0,76,0.01,,,0.01,WUHU216DAVISVP2,2013-05-29 19:26:00,
2013-05-29 14:31:00,67.5,60.8,29.65,South,180,0.0,6.0,79,0.01,,,0.01,WUHU216DAVISVP2,2013-05-29 19:31:00,
2013-05-29 14:36:00,66.9,60.6,29.64,South,186,0.0,6.0,80,0.01,,,0.01,WUHU216DAVISVP2,2013-05-29 19:36:00,
2013-05-29 14:41:00,66.4,60.8,29.64,South,184,0.0,5.0,82,0.01,,,0.01,WUHU216DAVISVP2,2013-05-29 19:41:00,
2013-05-29 14:46:00,65.8,59.9,29.64,South,185,0.0,2.0,81,0.01,,,0.01,WUHU216DAVISVP2,2013-05-29 19:46:00,
2013-05-29 14:51:00,65.3,59.4,29.64,South,185,0.0,0.0,81,0.01,,,0.01,WUHU216DAVISVP2,2013-05-29 19:51:00,
2013-05-29 14:56:00,64.9,59.3,29.64,South,185,0.0,0.0,82,0.01,,,0.01,WUHU216DAVISVP2,2013-05-29 19:56:00,
2013-05-29 15:01:00,64.4,58.5,29.65,South,180,0.0,0.0,81,0.01,,,0.01,WUHU216DAVISVP2,2013-05-29 20:01:00,
2013-05-29 15:06:00,64.1,58.2,29.64,South,179,0.0,0.0,81,0.01,,,0.01,WUHU216DAVISVP2,2013-05-29 20:06:00,
2013-05-29 15:11:00,63.8,58.6,29.64,South,179,0.0,0.0,83,0.01,,,0.01,WUHU216DAVISVP2,2013-05-29 20:11:00,
2013-05-29 15:16:00,63.3,58.1,29.64,South,180,0.0,0.0,83,0.00,,,0.01,WUHU216DAVISVP2,2013-05-29 20:16:00,
2013-05-29 15:21:00,63.0,58.1,29.64,South,180,0.0,0.0,84,0.00,,,0.01,WUHU216DAVISVP2,2013-05-29 20:21:00,
2013-05-29 15:26:00,62.7,57.8,29.64,South,180,0.0,0.0,84,0.00,,,0.01,WUHU216DAVISVP2,2013-05-29 20:26:00,
2013-05-29 15:31:00,62.8,58.2,29.64,South,179,0.0,0.0,85,0.00,,,0.01,WUHU216DAVISVP2,2013-05-29 20:31:00,
2013-05-29 15:36:00,63.0,58.4,29.63,South,180,0.0,0.0,85,0.00,,,0.01,WUHU216DAVISVP2,2013-05-29 20:36:00,
2013-05-29 15:41:00,63.2,58.9,29.63,South,179,0.0,0.0,86,0.00,,,0.01,WUHU216DAVISVP2,2013-05-29 20:41:00,
2013-05-29 15:46:00,63.5,58.9,29.62,South,179,0.0,0.0,85,0.00,,,0.01,WUHU216DAVISVP2,2013-05-29 20:46:00,
2013-05-29 15:51:00,63.4,58.2,29.62,South,180,0.0,0.0,83,0.00,,,0.01,WUHU216DAVISVP2,2013-05-29 20:51:00,
2013-05-29 15:56:00,63.5,58.3,29.61,South,180,0.0,0.0,83,0.00,,,0.01,WUHU216DAVISVP2,2013-05-29 20:56:00,
2013-05-29 16:01:00,63.7,58.5,29.60,South,179,0.0,0.0,83,0.00,,,0.01,WUHU216DAVISVP2,2013-05-29 21:01:00,
2013-05-29 16:07:00,64.0,58.4,29.60,SE,142,0.0,5.0,82,0.00,,,0.01,WUHU216DAVISVP2,2013-05-29 21:07:00,
2013-05-29 16:12:00,64.1,58.5,29.59,NE,51,0.0,5.0,82,0.00,,,0.01,WUHU216DAVISVP2,2013-05-29 21:12:00,
2013-05-29 16:17:00,64.3,58.7,29.59,NE,52,0.0,0.0,82,0.00,,,0.01,WUHU216DAVISVP2,2013-05-29 21:17:00,
2013-05-29 16:22:00,64.3,58.7,29.59,ENE,58,0.0,0.0,82,0.00,,,0.01,WUHU216DAVISVP2,2013-05-29 21:22:00,
2013-05-29 16:27:00,64.4,59.2,29.59,East,99,0.0,0.0,83,0.00,,,0.01,WUHU216DAVISVP2,2013-05-29 21:27:00,
2013-05-29 16:32:00,64.6,59.4,29.59,NE,53,0.0,1.0,83,0.00,,,0.01,WUHU216DAVISVP2,2013-05-29 21:32:00,
2013-05-29 16:37:00,64.8,59.9,29.60,NE,51,0.0,1.0,84,0.00,,,0.01,WUHU216DAVISVP2,2013-05-29 21:37:00,
2013-05-29 16:42:00,65.0,60.1,29.60,NE,45,0.0,3.0,84,0.00,,,0.01,WUHU216DAVISVP2,2013-05-29 21:42:00,
2013-05-29 16:47:00,65.1,60.2,29.60,NE,46,0.0,3.0,84,0.00,,,0.01,WUHU216DAVISVP2,2013-05-29 21:47:00,
2013-05-29 16:52:00,65.3,60.4,29.61,NE,46,0.0,0.0,84,0.00,,,0.01,WUHU216DAVISVP2,2013-05-29 21:52:00,
2013-05-29 16:57:00,65.4,60.5,29.61,NE,45,0.0,0.0,84,0.00,,,0.01,WUHU216DAVISVP2,2013-05-29 21:57:00,
2013-05-29 17:02:00,64.5,59.6,29.60,NE,45,0.0,1.0,84,0.00,,,0.01,WUHU216DAVISVP2,2013-05-29 22:02:00,
2013-05-29 17:07:00,63.5,58.9,29.59,NE,42,0.0,3.0,85,0.00,,,0.01,WUHU216DAVISVP2,2013-05-29 22:07:00,
2013-05-29 17:12:00,63.2,58.9,29.61,NE,42,0.0,3.0,86,0.00,,,0.01,WUHU216DAVISVP2,2013-05-29 22:12:00,
2013-05-29 17:17:00,63.2,59.3,29.61,NE,41,0.0,0.0,87,0.00,,,0.01,WUHU216DAVISVP2,2013-05-29 22:17:00,
2013-05-29 17:22:00,63.3,59.4,29.60,NE,42,0.0,4.0,87,0.00,,,0.01,WUHU216DAVISVP2,2013-05-29 22:22:00,
2013-05-29 17:27:00,63.2,59.3,29.60,NE,40,0.0,4.0,87,0.00,,,0.01,WUHU216DAVISVP2,2013-05-29 22:27:00,
2013-05-29 17:32:00,63.4,59.8,29.59,NE,40,0.0,2.0,88,0.00,,,0.01,WUHU216DAVISVP2,2013-05-29 22:32:00,
2013-05-29 17:37:00,63.4,59.8,29.59,NE,37,0.0,1.0,88,0.00,,,0.01,WUHU216DAVISVP2,2013-05-29 22:37:00,
2013-05-29 17:42:00,63.6,60.0,29.59,NNE,19,0.0,6.0,88,0.00,,,0.01,WUHU216DAVISVP2,2013-05-29 22:42:00,
2013-05-29 17:47:00,63.7,60.1,29.59,NNE,19,0.0,6.0,88,0.00,,,0.01,WUHU216DAVISVP2,2013-05-29 22:47:00,
2013-05-29 17:52:00,63.9,60.3,29.59,NNE,19,0.0,1.0,88,0.00,,,0.01,WUHU216DAVISVP2,2013-05-29 22:52:00,
2013-05-29 17:57:00,63.8,60.2,29.59,SE,129,0.0,3.0,88,0.00,,,0.01,WUHU216DAVISVP2,2013-05-29 22:57:00,
2013-05-29 18:02:00,63.5,59.9,29.60,SE,130,0.0,3.0,88,0.00,,,0.01,WUHU216DAVISVP2,2013-05-29 23:02:00,
2013-05-29 18:07:00,63.2,59.3,29.60,SE,129,0.0,0.0,87,0.00,,,0.01,WUHU216DAVISVP2,2013-05-29 23:07:00,
2013-05-29 18:12:00,63.0,59.4,29.59,SE,129,0.0,0.0,88,0.00,,,0.01,WUHU216DAVISVP2,2013-05-29 23:12:00,
2013-05-29 18:17:00,62.5,58.9,29.58,SE,128,0.0,1.0,88,0.00,,,0.01,WUHU216DAVISVP2,2013-05-29 23:17:00,
2013-05-29 18:22:00,62.2,58.6,29.58,SE,126,0.0,4.0,88,0.00,,,0.01,WUHU216DAVISVP2,2013-05-29 23:22:00,
2013-05-29 18:27:00,62.2,58.6,29.58,SE,126,0.0,4.0,88,0.00,,,0.01,WUHU216DAVISVP2,2013-05-29 23:27:00,
2013-05-29 18:32:00,62.2,58.6,29.57,SE,126,0.0,2.0,88,0.00,,,0.01,WUHU216DAVISVP2,2013-05-29 23:32:00,
2013-05-29 18:37:00,62.3,59.0,29.57,SE,125,0.0,3.0,89,0.00,,,0.01,WUHU216DAVISVP2,2013-05-29 23:37:00,
2013-05-29 18:42:00,62.1,58.5,29.57,East,79,0.0,4.0,88,0.00,,,0.01,WUHU216DAVISVP2,2013-05-29 23:42:00,
2013-05-29 18:47:00,62.1,58.5,29.57,East,83,0.0,4.0,88,0.00,,,0.01,WUHU216DAVISVP2,2013-05-29 23:47:00,
2013-05-29 18:52:00,62.2,58.6,29.57,ENE,78,0.0,0.0,88,0.00,,,0.01,WUHU216DAVISVP2,2013-05-29 23:52:00,
2013-05-29 18:57:00,62.2,58.6,29.56,SE,133,0.0,1.0,88,0.00,,,0.01,WUHU216DAVISVP2,2013-05-29 23:57:00,
2013-05-29 19:02:00,62.3,58.7,29.56,ESE,106,0.0,5.0,88,0.00,,,0.01,WUHU216DAVISVP2,2013-05-30 00:02:00,
2013-05-29 19:07:00,62.5,58.9,29.56,ESE,106,0.0,5.0,88,0.00,,,0.01,WUHU216DAVISVP2,2013-05-30 00:07:00,
2013-05-29 19:12:00,62.6,59.0,29.56,ESE,112,0.0,4.0,88,0.00,,,0.01,WUHU216DAVISVP2,2013-05-30 00:12:00,
2013-05-29 19:17:00,62.6,59.0,29.56,ESE,109,3.0,4.0,88,0.00,,,0.01,WUHU216DAVISVP2,2013-05-30 00:17:00,
2013-05-29 19:22:00,62.7,58.8,29.56,SE,126,0.0,7.0,87,0.00,,,0.01,WUHU216DAVISVP2,2013-05-30 00:22:00,
2013-05-29 19:27:00,62.7,58.8,29.56,NE,50,0.0,7.0,87,0.00,,,0.01,WUHU216DAVISVP2,2013-05-30 00:27:00,
2013-05-29 19:32:00,62.7,58.5,29.55,NNE,12,0.0,5.0,86,0.00,,,0.01,WUHU216DAVISVP2,2013-05-30 00:32:00,
2013-05-29 19:37:00,62.8,58.6,29.55,NNE,30,0.0,5.0,86,0.00,,,0.01,WUHU216DAVISVP2,2013-05-30 00:37:00,
2013-05-29 19:42:00,63.0,58.4,29.55,NE,44,0.0,3.0,85,0.00,,,0.01,WUHU216DAVISVP2,2013-05-30 00:42:00,
2013-05-29 19:47:00,63.1,58.5,29.55,ENE,69,0.0,3.0,85,0.00,,,0.01,WUHU216DAVISVP2,2013-05-30 00:47:00,
2013-05-29 19:52:00,63.2,58.6,29.56,ESE,115,0.0,1.0,85,0.00,,,0.01,WUHU216DAVISVP2,2013-05-30 00:52:00,
2013-05-29 19:57:00,63.3,58.4,29.57,ESE,122,0.0,6.0,84,0.00,,,0.01,WUHU216DAVISVP2,2013-05-30 00:57:00,
2013-05-29 20:02:00,63.4,58.5,29.56,ESE,123,0.0,6.0,84,0.00,,,0.01,WUHU216DAVISVP2,2013-05-30 01:02:00,
2013-05-29 20:07:00,63.4,58.2,29.56,SE,141,0.0,4.0,83,0.00,,,0.01,WUHU216DAVISVP2,2013-05-30 01:07:00,
2013-05-29 20:12:00,63.4,58.2,29.56,SE,132,0.0,4.0,83,0.00,,,0.01,WUHU216DAVISVP2,2013-05-30 01:12:00,
2013-05-29 20:17:00,63.3,57.8,29.55,ENE,69,0.0,5.0,82,0.00,,,0.01,WUHU216DAVISVP2,2013-05-30 01:17:00,
2013-05-29 20:22:00,63.2,57.7,29.55,ENE,66,0.0,5.0,82,0.00,,,0.01,WUHU216DAVISVP2,2013-05-30 01:22:00,
2013-05-29 20:27:00,63.2,57.3,29.55,East,80,0.0,5.0,81,0.00,,,0.01,WUHU216DAVISVP2,2013-05-30 01:27:00,
2013-05-29 20:32:00,63.2,57.7,29.55,East,81,0.0,5.0,82,0.00,,,0.01,WUHU216DAVISVP2,2013-05-30 01:32:00,
2013-05-29 20:37:00,63.1,57.2,29.55,ENE,73,0.0,1.0,81,0.00,,,0.01,WUHU216DAVISVP2,2013-05-30 01:37:00,
2013-05-29 20:42:00,63.1,57.6,29.54,ENE,69,0.0,2.0,82,0.00,,,0.01,WUHU216DAVISVP2,2013-05-30 01:42:00,
2013-05-29 20:47:00,63.1,57.2,29.54,ENE,60,0.0,4.0,81,0.00,,,0.01,WUHU216DAVISVP2,2013-05-30 01:47:00,
2013-05-29 20:52:00,63.1,57.2,29.53,NE,52,0.0,4.0,81,0.00,,,0.01,WUHU216DAVISVP2,2013-05-30 01:52:00,
2013-05-29 20:57:00,63.1,57.2,29.54,East,98,0.0,2.0,81,0.00,,,0.01,WUHU216DAVISVP2,2013-05-30 01:57:00,
2013-05-29 21:02:00,63.1,57.2,29.54,NE,53,0.0,2.0,81,0.00,,,0.01,WUHU216DAVISVP2,2013-05-30 02:02:00,
2013-05-29 21:07:00,63.3,56.8,29.53,East,88,0.0,5.0,79,0.00,,,0.01,WUHU216DAVISVP2,2013-05-30 02:07:00,
2013-05-29 21:12:00,63.5,56.6,29.54,East,82,0.0,5.0,78,0.00,,,0.01,WUHU216DAVISVP2,2013-05-30 02:12:00,
2013-05-29 21:17:00,63.6,56.7,29.55,East,82,0.0,0.0,78,0.00,,,0.01,WUHU216DAVISVP2,2013-05-30 02:17:00,
2013-05-29 21:22:00,63.6,57.4,29.56,East,82,0.0,0.0,80,0.00,,,0.01,WUHU216DAVISVP2,2013-05-30 02:22:00,
2013-05-29 21:27:00,63.1,57.6,29.57,East,82,0.0,0.0,82,0.00,,,0.01,WUHU216DAVISVP2,2013-05-30 02:27:00,
2013-05-29 21:32:00,62.6,57.4,29.56,East,82,0.0,0.0,83,0.00,,,0.01,WUHU216DAVISVP2,2013-05-30 02:32:00,
2013-05-29 21:37:00,62.1,57.5,29.56,East,82,0.0,0.0,85,0.00,,,0.01,WUHU216DAVISVP2,2013-05-30 02:37:00,
2013-05-29 21:42:00,61.8,57.6,29.56,East,82,0.0,1.0,86,0.00,,,0.01,WUHU216DAVISVP2,2013-05-30 02:42:00,
2013-05-29 21:47:00,61.7,57.5,29.56,NNE,25,1.0,2.0,86,0.00,,,0.01,WUHU216DAVISVP2,2013-05-30 02:47:00,
2013-05-29 21:52:00,61.8,57.9,29.56,NNE,26,2.0,2.0,87,0.00,,,0.01,WUHU216DAVISVP2,2013-05-30 02:52:00,
2013-05-29 21:57:00,62.3,58.7,29.56,North,360,0.0,10.0,88,0.00,,,0.01,WUHU216DAVISVP2,2013-05-30 02:57:00,
2013-05-29 22:02:00,62.4,58.8,29.56,NNE,12,0.0,10.0,88,0.00,,,0.01,WUHU216DAVISVP2,2013-05-30 03:02:00,
2013-05-29 22:07:00,62.4,58.8,29.56,North,9,1.0,6.0,88,0.00,,,0.01,WUHU216DAVISVP2,2013-05-30 03:07:00,
2013-05-29 22:12:00,62.7,59.1,29.56,SE,136,0.0,9.0,88,0.00,,,0.01,WUHU216DAVISVP2,2013-05-30 03:12:00,
2013-05-29 22:17:00,62.7,59.4,29.56,SE,134,0.0,9.0,89,0.00,,,0.01,WUHU216DAVISVP2,2013-05-30 03:17:00,
2013-05-29 22:22:00,62.7,59.1,29.55,East,90,0.0,1.0,88,0.00,,,0.01,WUHU216DAVISVP2,2013-05-30 03:22:00,
2013-05-29 22:27:00,62.7,59.1,29.56,NE,46,0.0,1.0,88,0.00,,,0.01,WUHU216DAVISVP2,2013-05-30 03:27:00,
2013-05-29 22:32:00,62.5,59.2,29.56,North,10,5.0,8.0,89,0.00,,,0.01,WUHU216DAVISVP2,2013-05-30 03:32:00,
2013-05-29 22:37:00,62.6,59.3,29.56,NE,53,0.0,8.0,89,0.00,,,0.01,WUHU216DAVISVP2,2013-05-30 03:37:00,
2013-05-29 22:42:00,63.0,59.7,29.56,ENE,67,0.0,6.0,89,0.00,,,0.01,WUHU216DAVISVP2,2013-05-30 03:42:00,
2013-05-29 22:47:00,63.0,59.7,29.56,ESE,113,0.0,5.0,89,0.00,,,0.01,WUHU216DAVISVP2,2013-05-30 03:47:00,
2013-05-29 22:52:00,63.0,59.7,29.56,East,99,0.0,5.0,89,0.00,,,0.01,WUHU216DAVISVP2,2013-05-30 03:52:00,
2013-05-29 22:57:00,63.0,59.7,29.56,NNE,28,0.0,4.0,89,0.00,,,0.01,WUHU216DAVISVP2,2013-05-30 03:57:00,
2013-05-29 23:01:00,62.6,59.3,29.56,North,11,0.0,4.0,89,0.00,,,0.01,WUHU216DAVISVP2,2013-05-30 04:01:00,
2013-05-29 23:06:00,62.2,58.9,29.56,NNE,12,5.0,10.0,89,0.00,,,0.01,WUHU216DAVISVP2,2013-05-30 04:06:00,
2013-05-29 23:11:00,62.0,58.7,29.57,NE,44,0.0,10.0,89,0.00,,,0.01,WUHU216DAVISVP2,2013-05-30 04:11:00,
2013-05-29 23:16:00,61.7,58.4,29.56,NNE,17,0.0,9.0,89,0.00,,,0.01,WUHU216DAVISVP2,2013-05-30 04:16:00,
2013-05-29 23:21:00,61.7,58.4,29.56,NE,38,0.0,9.0,89,0.00,,,0.01,WUHU216DAVISVP2,2013-05-30 04:21:00,
2013-05-29 23:26:00,61.6,58.3,29.56,NNE,29,0.0,6.0,89,0.00,,,0.01,WUHU216DAVISVP2,2013-05-30 04:26:00,
2013-05-29 23:31:00,61.6,58.3,29.57,NE,36,0.0,0.0,89,0.00,,,0.01,WUHU216DAVISVP2,2013-05-30 04:31:00,
2013-05-29 23:36:00,61.6,58.3,29.56,NE,36,0.0,0.0,89,0.00,,,0.01,WUHU216DAVISVP2,2013-05-30 04:36:00,
2013-05-29 23:41:00,61.6,58.3,29.54,NE,49,0.0,9.0,89,0.00,,,0.01,WUHU216DAVISVP2,2013-05-30 04:41:00,
2013-05-29 23:46:00,61.5,58.2,29.55,NNE,32,0.0,9.0,89,0.00,,,0.01,WUHU216DAVISVP2,2013-05-30 04:46:00,
2013-05-29 23:51:00,61.4,58.1,29.56,NNE,15,0.0,6.0,89,0.00,,,0.01,WUHU216DAVISVP2,2013-05-30 04:51:00,
2013-05-29 23:56:00,61.3,58.3,29.55,North,5,0.0,6.0,90,0.00,,,0.01,WUHU216DAVISVP2,2013-05-30 04:56:00,